Medford, OR

3:12 PM PDT on October 20, 2017 (GMT -0700)
Rogue Valley International-Medford

Weather History for KMFR - April, 2013

Change the Weather History Date:

Tuesday, April 30, 2013

  Actual Average Record
Temperature  
Mean Temperature 52 °F 56 °F  
Max Temperature 65 °F 69 °F 92 °F (2014)
Min Temperature 38 °F 43 °F 26 °F (1972)
Degree Days  
Heating Degree Days 13 9  
Month to date heating degree days 320 366  
Since 1 July heating degree days 3871 3999  
Cooling Degree Days 0 0  
Month to date cooling degree days 2 3  
Year to date cooling degree days 2 3  
Growing Degree Days 2 (Base 50)    
Moisture  
Dew Point 29 °F    
Average Humidity 48    
Maximum Humidity 76    
Minimum Humidity 19    
Precipitation  
Precipitation 0.00 in 0.04 in 0.41 in (1989)
Month to date precipitation 1.04 1.38  
Year to date precipitation 3.05 7.53  
Snow  
Snow 0.00 in 0.00 in - ()
Month to date snowfall 0.0 0.0  
Since 1 July snowfall 1.7 4.1  
Snow Depth 0.00 in    
Sea Level Pressure  
Sea Level Pressure 30.21 in    
Wind  
Wind Speed 4 mph (NW)    
Max Wind Speed 15 mph    
Max Gust Speed 20 mph    
Visibility 10 miles    
Events      
T = Trace of Precipitation, MM = Missing Value Source: NWS Daily Summary

Daily Weather History Graph

Daily Weather History Graph

Search for Another Location

Airport or City:

Trip Planner

Search our weather history database for the weather conditions in past years. The results will help you decide how hot, cold, wet, or windy it might be!

Date:

Astronomy

Apr. 30, 2013 Rise Set
Actual Time 6:07 AM PDT 8:10 PM PDT
Civil Twilight 5:37 AM PDT 8:41 PM PDT
Nautical Twilight 4:59 AM PDT 9:18 PM PDT
Astronomical Twilight 4:18 AM PDT 9:59 PM PDT
Moon 12:39 AM PDT (4/30) 10:41 AM PDT (4/30)
Length of Visible Light 15h 04m
Length of Day
14h 02m
Waning Gibbous, 69% of the Moon is Illuminated
Apr 30
Waning Gibbous
May 2
Last Quarter
May 9
New
May 17
First Quarter
May 24
Full

Hourly Weather History & Observations

Time (PDT) Temp. Windchill Dew Point Humidity Pressure Visibility Wind Dir Wind Speed Gust Speed Precip Events Conditions
12:53 AM 48.9 °F - 35.1 °F 59% 30.11 in 10.0 mi NNW 5.8 mph - N/A   Clear
1:53 AM 48.0 °F - 35.1 °F 61% 30.13 in 10.0 mi NNW 3.5 mph - N/A   Clear
2:53 AM 46.0 °F 44.8 °F 34.0 °F 63% 30.14 in 10.0 mi NNW 3.5 mph - N/A   Clear
3:53 AM 44.1 °F - 34.0 °F 68% 30.15 in 10.0 mi Calm Calm - N/A   Clear
4:53 AM 42.1 °F - 33.1 °F 70% 30.16 in 10.0 mi Calm Calm - N/A   Clear
5:53 AM 42.1 °F 40.2 °F 32.0 °F 67% 30.19 in 10.0 mi NW 3.5 mph - N/A   Clear
6:53 AM 39.9 °F - 32.0 °F 73% 30.22 in 10.0 mi Calm Calm - N/A   Scattered Clouds
7:53 AM 43.0 °F - 32.0 °F 65% 30.24 in 10.0 mi Calm Calm - N/A   Scattered Clouds
8:53 AM 46.0 °F 43.9 °F 30.9 °F 56% 30.24 in 10.0 mi NE 4.6 mph - N/A   Partly Cloudy
9:53 AM 48.0 °F - 30.9 °F 52% 30.23 in 10.0 mi West 4.6 mph - N/A   Clear
10:53 AM 51.1 °F - 30.0 °F 44% 30.22 in 10.0 mi Calm Calm - N/A   Clear
11:53 AM 55.9 °F - 26.1 °F 32% 30.22 in 10.0 mi West 6.9 mph - N/A   Clear
12:53 PM 57.9 °F - 26.1 °F 30% 30.20 in 10.0 mi Calm Calm - N/A   Clear
1:53 PM 63.0 °F - 23.0 °F 22% 30.19 in 10.0 mi WNW 11.5 mph 16.1 mph 0.01 in   Clear
2:53 PM 64.0 °F - 21.0 °F 19% 30.19 in 10.0 mi NNW 6.9 mph 19.6 mph N/A   Clear
3:53 PM 64.9 °F - 25.0 °F 22% 30.19 in 10.0 mi NNW 10.4 mph - N/A   Clear
4:53 PM 62.6 °F - 24.8 °F 24% 30.20 in 10.0 mi NW 9.2 mph 19.6 mph N/A   Clear
5:53 PM 64.0 °F - 25.0 °F 23% 30.21 in 10.0 mi North 11.5 mph - N/A   Clear
6:53 PM 61.0 °F - 26.1 °F 26% 30.22 in 10.0 mi NNW 10.4 mph - N/A   Clear
7:53 PM 57.2 °F - 26.6 °F 31% 30.24 in 10.0 mi NW 8.1 mph - N/A   Clear
8:53 PM 53.1 °F - 27.0 °F 37% 30.27 in 10.0 mi North 8.1 mph - N/A   Clear
9:53 PM 51.8 °F - 28.4 °F 41% 30.29 in 10.0 mi WNW 3.5 mph - N/A   Clear
10:53 PM 48.0 °F - 28.9 °F 48% 30.31 in 10.0 mi Calm Calm - N/A   Clear
11:53 PM 46.0 °F - 28.9 °F 51% 30.32 in 10.0 mi Calm Calm - N/A   Clear